Wind_Speed
14 15 14 14 14 14 14 13 13 12 12 12 11 11 11 11 11 10 10 10 10 11 11 10 9 9 9 10 10 11 14 16 15 11 8 11 10 9 9 13 16 15 12 8 8 6 5 5 6 7 5 3 2 2 4 5 2 2 2 1 2 3 3 4 7 5 3 4 5 6 6 4 2 2 2 1 6 7 8 7 6 7 9 11 15 23 26 26
14 15 15 16 16 15 15 15 14 13 12 12 12 11 12 11 11 11 10 10 10 11 11 10 9 9 9 10 10 11 15 17 15 13 13 11 8 8 14 17 16 15 14 10 10 9 6 3 4 6 4 1 2 3 4 4 5 3 2 2 4 5 4 5 7 5 3 4 6 7 9 6 3 3 1 4 8 6 9 8 9 11 11 13 18 24 24 26
14 16 16 17 17 17 17 16 16 15 14 13 13 12 12 12 12 12 11 10 10 11 11 10 9 9 9 9 9 11 14 13 8 8 7 5 9 11 16 18 15 14 16 13 10 10 6 2 4 6 3 0 2 2 2 2 5 3 2 3 5 4 3 3 6 8 6 8 10 8 7 6 2 2 1 6 10 7 9 9 11 13 12 14 15 20 23 23
15 16 17 17 17 18 18 17 17 17 16 15 14 13 13 13 13 13 12 10 9 10 10 10 9 9 9 9 9 10 10 6 3 3 2 3 4 12 19 17 12 12 13 10 6 8 6 2 3 4 2 1 2 2 2 3 5 2 3 4 4 2 2 2 4 9 9 9 11 8 7 7 3 3 1 7 9 7 9 11 14 16 16 16 14 17 20 19
16 17 18 18 18 18 18 18 18 18 17 16 14 13 13 13 13 13 11 9 9 10 10 9 9 8 8 8 7 8 6 2 2 4 3 4 2 12 20 16 12 12 12 8 5 6 5 2 4 3 1 2 2 1 4 6 5 2 3 2 2 1 1 2 2 9 10 7 8 8 8 6 4 3 1 6 9 7 8 12 15 17 17 17 16 17 17 16
16 17 18 18 19 19 19 19 19 18 17 17 15 14 14 13 13 12 10 8 8 9 10 8 8 8 7 7 5 5 3 0 5 4 2 3 1 10 20 19 14 13 11 7 5 5 4 3 3 2 1 2 4 5 5 5 5 2 1 2 4 2 1 2 3 7 12 11 10 9 6 4 4 3 2 5 7 6 8 13 15 16 18 20 18 16 15 14
16 17 17 18 19 20 21 21 20 18 18 18 16 15 14 13 12 11 9 8 7 8 8 8 7 7 7 5 3 3 2 4 7 4 5 3 1 9 18 19 15 14 12 8 6 5 5 5 4 3 2 3 6 5 2 3 3 3 1 2 3 3 3 3 2 4 10 11 10 8 5 4 5 3 3 3 4 8 11 14 15 16 20 20 16 14 14 15
16 17 17 18 20 21 22 22 21 19 19 18 17 16 14 12 10 9 9 7 7 7 6 6 6 6 7 4 1 3 1 5 5 3 7 4 4 11 19 18 16 15 13 12 9 6 5 5 5 3 2 4 3 2 3 5 3 2 2 1 2 3 5 5 6 9 7 6 8 8 5 3 4 4 1 3 5 13 14 15 16 16 17 16 14 14 14 14
16 16 17 19 20 21 22 22 22 20 19 19 17 16 14 11 9 9 8 7 7 7 7 6 5 5 6 4 2 3 3 4 4 3 5 4 5 14 20 17 17 17 13 12 11 9 6 5 5 4 2 4 3 3 4 3 1 2 4 3 3 3 4 4 6 9 5 4 7 7 5 1 2 5 1 4 9 16 16 16 16 16 15 14 13 14 13 13
16 17 18 19 20 21 22 22 22 20 19 18 17 15 13 10 9 9 7 7 6 6 7 5 4 4 4 3 4 2 3 4 4 2 4 4 6 15 20 16 18 19 13 10 12 12 6 4 3 3 2 3 3 3 4 2 3 6 7 5 4 4 3 3 4 6 4 2 3 5 6 3 3 4 1 6 14 17 16 16 15 16 15 14 13 12 14 14
17 18 19 19 20 21 22 23 22 20 19 18 16 14 12 9 8 8 6 5 4 5 5 4 3 4 2 3 4 2 3 5 7 5 5 5 6 13 19 17 18 21 14 8 14 16 7 4 1 0 1 3 2 2 2 4 9 10 9 7 4 4 4 4 2 4 5 3 2 2 5 4 3 2 2 8 15 17 17 16 15 15 14 14 14 12 12 13
18 18 19 20 21 22 23 23 22 20 19 17 15 13 11 9 7 7 5 4 3 3 3 2 2 2 2 3 4 7 3 6 9 9 8 6 6 9 14 16 17 21 18 9 12 17 10 3 3 1 1 2 2 1 3 5 9 8 5 6 4 4 4 3 2 2 5 4 1 1 3 4 5 5 7 11 15 16 17 16 14 14 12 12 13 10 9 11
18 19 19 20 21 23 23 23 22 21 19 16 14 12 10 8 6 5 4 3 2 2 2 1 1 2 3 0 6 7 4 7 8 9 9 8 7 7 11 15 15 18 21 12 4 7 12 7 1 2 2 2 2 2 5 4 6 4 1 4 4 3 3 3 2 2 5 5 2 3 4 3 6 9 11 12 15 17 16 15 13 11 11 11 11 9 8 10
18 19 20 21 22 23 24 23 22 21 19 16 13 11 10 8 5 4 3 2 1 1 2 1 2 2 2 5 10 6 5 6 6 9 9 9 9 7 10 15 14 15 18 16 5 1 7 7 3 3 3 2 2 3 6 3 3 3 2 2 2 3 1 3 3 2 4 3 5 2 4 2 6 11 12 13 15 17 15 13 12 10 10 10 9 9 8 9
18 19 20 21 23 23 24 23 22 21 19 17 15 12 10 8 6 4 3 2 0 1 1 2 2 2 1 7 10 6 6 6 6 11 10 11 11 6 10 15 13 12 13 15 11 6 3 2 2 2 3 3 5 4 4 3 2 2 3 1 2 2 1 3 5 6 5 4 10 9 3 1 7 10 11 13 14 15 15 12 12 11 11 10 8 9 8 8
18 19 20 22 23 24 24 23 22 20 19 17 17 15 12 10 6 4 3 1 1 1 2 3 2 2 1 5 7 6 4 5 6 8 8 12 14 9 10 14 11 11 12 11 11 10 7 3 1 2 1 3 5 4 4 3 1 2 2 3 2 2 1 2 5 7 6 2 7 9 3 1 3 10 11 12 14 14 14 12 12 12 11 10 8 8 7 6
19 19 21 22 23 24 24 23 22 20 19 19 19 17 14 10 6 4 2 1 1 2 2 1 2 2 2 6 6 5 4 6 9 7 7 11 15 13 9 7 6 7 8 8 8 6 3 2 2 1 2 2 3 4 4 2 2 1 2 2 1 2 3 2 1 2 5 4 4 6 3 3 4 9 12 11 14 14 12 13 13 12 10 9 8 7 6 6
19 20 21 23 23 24 24 23 21 20 19 18 19 18 13 7 3 2 1 3 2 1 1 1 0 2 3 5 4 6 11 13 11 8 7 8 14 16 9 4 3 2 0 3 3 3 2 1 0 1 2 2 3 4 3 3 4 4 3 3 2 2 3 3 2 3 4 7 3 3 4 3 7 3 5 3 10 14 13 13 12 11 10 9 8 7 6 8
19 21 22 23 23 24 24 22 20 20 19 18 17 15 9 4 1 1 2 3 1 1 1 2 1 1 3 6 8 12 15 13 7 6 7 8 11 15 10 4 2 4 2 2 1 3 3 0 2 3 3 3 5 6 5 5 5 7 5 3 5 3 2 3 2 2 2 5 4 2 4 3 4 1 2 4 1 8 12 11 11 10 9 8 8 6 7 9
20 21 22 23 23 24 23 21 19 18 18 17 16 11 4 3 4 2 1 2 4 4 4 4 4 2 6 7 10 12 13 8 3 6 9 8 9 9 5 1 3 3 2 2 2 2 3 3 2 4 6 6 8 8 7 5 4 5 3 3 4 4 2 2 2 2 3 3 2 3 5 4 0 2 2 3 3 5 10 11 10 10 8 9 8 8 9 9
20 22 22 23 23 23 23 20 17 16 15 15 14 6 2 1 3 3 4 3 7 9 9 8 7 7 9 9 10 8 6 4 4 4 7 8 9 7 1 1 3 1 2 3 2 2 3 3 5 7 8 9 8 7 6 4 3 4 4 4 4 3 2 3 3 5 4 2 1 3 5 3 2 3 4 1 1 6 10 11 12 10 9 9 9 9 9 7
21 22 23 23 23 23 22 18 16 13 10 12 11 3 2 2 0 2 3 4 7 7 9 8 6 8 11 13 16 6 3 2 7 5 4 6 5 4 1 3 5 4 3 1 0 3 1 3 8 9 7 6 5 4 6 5 4 5 4 4 4 3 3 4 5 6 3 0 2 4 6 5 2 3 5 2 2 4 5 9 13 11 10 9 9 10 9 7
21 22 23 23 23 23 21 17 14 9 7 12 10 3 5 7 5 7 3 2 7 4 5 5 4 5 6 9 11 4 4 3 4 5 4 6 3 4 4 3 5 3 1 2 4 1 2 5 8 7 5 5 4 4 6 4 3 4 4 4 4 5 5 2 5 7 0 1 3 4 4 3 1 3 6 5 4 3 3 5 10 10 10 12 12 11 10 9
21 23 23 23 23 21 20 17 11 5 9 15 12 8 13 16 14 9 1 1 5 5 5 6 5 4 5 5 4 6 3 4 3 4 5 8 3 2 4 4 4 2 2 4 5 4 6 8 5 1 4 6 4 3 5 4 2 3 6 6 5 8 5 3 7 8 2 2 3 6 2 1 3 5 6 4 2 2 2 3 7 8 8 10 10 10 11 12
22 23 24 24 22 21 19 13 3 3 13 15 9 13 19 19 15 5 2 2 3 5 4 3 2 4 6 3 3 5 1 3 4 4 6 9 6 3 2 3 3 3 4 3 3 4 8 7 2 1 3 5 4 4 4 5 3 3 6 8 8 11 7 9 12 9 3 1 3 6 3 2 5 8 8 4 2 3 2 2 9 9 6 7 9 8 9 11
23 24 24 23 22 21 14 4 1 9 14 8 6 16 20 18 13 1 3 4 2 5 4 0 1 3 5 2 3 3 3 3 6 5 6 9 8 5 2 1 1 3 5 3 2 3 5 3 4 4 5 4 4 4 5 6 5 2 6 9 8 10 9 13 15 8 3 3 4 5 4 2 4 8 9 5 5 6 3 3 8 9 7 8 9 8 7 11
24 24 25 23 22 20 9 2 7 11 6 4 10 18 20 18 8 4 3 5 2 3 2 1 1 1 3 2 4 5 2 4 3 2 5 9 6 3 2 2 1 2 3 2 1 3 3 2 4 6 5 4 4 4 6 8 6 4 6 9 10 11 11 14 12 5 2 2 2 2 1 2 3 6 9 7 6 6 5 6 6 7 8 8 10 9 8 11
24 24 25 22 21 18 10 8 11 6 3 7 14 18 20 15 3 6 4 3 1 2 1 1 1 2 2 1 4 3 3 2 1 3 3 10 7 2 2 4 4 4 3 4 3 4 3 3 5 7 5 5 5 6 8 10 6 3 2 7 9 9 9 9 5 2 2 4 2 4 2 1 3 3 5 8 8 8 9 10 8 7 8 8 10 10 9 12
24 25 24 22 20 16 10 9 9 5 6 11 15 19 19 9 2 5 4 1 2 3 1 1 1 2 2 2 1 1 2 0 1 4 0 7 4 2 3 6 5 5 4 4 5 5 3 6 7 6 5 5 8 8 9 10 5 4 13 13 10 10 9 7 5 4 3 2 2 7 6 2 2 3 4 6 9 11 10 10 8 8 8 8 9 10 9 10
25 23 22 21 18 12 9 10 9 6 8 11 16 20 14 4 3 5 3 0 1 3 2 1 1 0 3 3 2 3 2 2 2 1 2 2 1 3 2 2 3 2 3 1 4 7 6 6 4 4 6 7 8 8 6 9 7 10 14 12 11 8 6 6 4 5 3 3 3 6 9 2 2 3 5 8 10 11 9 8 8 8 7 7 7 8 9 10
24 22 20 19 15 8 6 6 4 3 9 14 19 16 7 3 4 4 0 1 1 3 2 1 1 1 4 3 1 2 2 3 1 2 1 1 3 4 1 2 3 2 4 4 4 6 5 4 4 5 7 7 6 2 1 9 12 10 7 7 8 5 4 5 3 3 1 4 3 2 6 3 2 4 6 9 10 11 11 10 11 11 9 8 6 7 9 9
22 19 18 17 15 11 8 5 4 8 13 16 15 7 4 2 2 1 2 2 2 2 2 2 2 1 3 3 1 2 1 2 1 1 2 1 0 1 2 3 2 2 3 3 3 5 4 4 4 3 5 6 6 3 4 4 5 7 7 6 6 3 3 3 1 1 2 4 1 1 4 3 5 6 5 8 9 11 13 12 12 13 11 9 6 6 7 9
20 18 16 14 13 13 11 9 10 12 14 14 8 3 5 4 0 2 2 2 1 3 2 3 3 2 3 1 2 2 1 2 3 0 2 2 1 2 4 5 5 3 1 3 2 4 4 5 3 1 3 4 8 6 4 2 1 6 8 6 5 3 2 2 3 2 2 3 1 3 5 3 4 5 5 8 10 10 11 11 11 12 13 11 7 5 6 8
19 16 13 12 12 12 10 9 11 11 11 9 5 4 5 2 2 3 2 3 3 4 5 2 2 3 3 2 3 2 1 2 2 1 1 1 1 2 4 3 4 5 2 2 2 1 0 4 3 4 3 3 8 9 9 8 4 4 3 3 5 6 4 4 4 3 2 1 1 5 5 4 2 3 4 5 7 8 9 9 10 10 11 11 8 5 5 8
18 15 13 12 12 10 7 7 7 6 5 4 5 4 3 1 3 2 2 4 2 3 6 2 4 2 1 2 3 2 2 1 2 1 1 2 3 3 3 2 4 5 3 1 3 2 2 5 7 5 3 5 7 7 10 10 4 1 3 2 3 5 5 3 2 3 4 3 2 4 3 3 3 3 3 2 4 7 8 8 10 11 11 11 10 7 5 6
17 13 10 10 10 8 6 4 3 3 2 4 5 3 2 3 3 2 3 3 2 4 7 5 3 2 2 3 3 2 1 0 1 0 1 2 3 3 3 3 5 6 4 3 3 1 0 4 6 5 2 5 7 8 11 8 4 3 2 4 5 3 6 5 1 2 4 3 1 2 3 4 2 3 3 1 4 7 8 8 10 12 12 13 13 10 7 6
17 12 7 9 10 8 6 3 3 6 4 5 4 0 3 3 3 4 3 4 4 3 2 2 1 2 2 1 3 3 3 2 1 1 2 2 2 2 3 3 3 7 7 5 3 2 2 5 5 2 3 3 4 9 8 3 5 7 4 6 3 2 4 5 2 2 3 1 1 2 3 4 2 2 2 1 5 7 9 10 10 10 12 14 14 14 10 7
16 9 7 9 10 8 5 3 7 6 4 5 2 2 2 2 4 4 4 5 5 2 0 0 1 2 2 1 3 3 2 3 2 0 1 2 2 2 1 3 2 3 6 6 2 2 2 3 6 1 0 4 2 8 4 4 2 7 5 4 4 2 1 2 2 2 2 1 2 2 3 3 4 4 3 6 8 8 9 10 11 11 13 13 14 15 12 9
10 4 4 6 6 5 6 7 7 5 5 3 1 3 2 3 5 5 5 5 3 1 0 2 1 1 2 2 3 3 1 2 2 1 1 1 2 3 1 1 3 6 5 6 6 2 2 1 5 5 2 1 2 5 3 4 1 4 2 0 1 2 4 3 2 3 3 2 1 2 2 3 5 5 7 10 10 9 10 10 10 13 14 13 13 13 12 9
3 2 2 7 5 7 10 8 5 5 3 1 2 2 2 3 5 7 6 3 2 1 0 1 1 2 0 2 2 1 1 2 4 2 1 2 1 4 3 0 2 7 5 3 4 2 1 2 3 6 6 2 1 1 4 6 4 5 2 0 1 1 2 3 1 2 3 3 2 1 2 5 5 3 7 10 9 10 11 11 10 10 11 11 11 11 10 9
3 2 3 8 1 13 11 6 2 2 1 1 2 3 3 3 4 8 7 3 1 2 1 0 1 2 1 1 2 2 1 1 2 3 1 2 2 2 3 1 2 4 4 4 1 1 1 1 2 3 5 1 3 4 5 7 6 5 4 3 4 2 3 3 0 1 2 4 3 4 2 6 5 2 4 6 7 8 10 10 9 8 10 9 7 8 9 9
2 1 3 3 9 14 7 3 1 1 2 2 2 4 4 4 4 6 6 3 1 1 1 1 1 1 1 2 2 2 2 1 1 2 2 3 3 3 4 5 4 2 2 1 3 1 2 3 2 2 2 3 7 6 3 4 5 5 2 2 3 3 4 5 3 3 1 2 2 3 1 5 4 2 1 3 4 6 7 8 7 7 7 7 7 7 8 8
2 2 3 2 11 9 6 2 3 3 2 4 3 4 3 3 4 4 4 3 2 2 2 2 1 1 0 1 1 1 2 1 1 2 2 2 2 5 5 4 4 1 2 1 3 2 2 3 3 3 4 5 7 6 4 3 6 4 2 2 2 2 3 4 4 3 3 2 2 2 1 5 4 3 1 2 2 4 5 6 7 7 6 8 9 8 8 8
0 3 3 2 11 8 4 1 3 3 4 4 4 5 4 3 4 3 3 3 1 1 1 1 1 1 1 1 2 3 2 1 2 1 2 0 3 4 0 6 5 1 1 0 0 1 2 2 3 3 4 6 6 7 7 6 4 2 2 4 3 1 3 4 1 3 2 3 4 4 3 5 4 3 3 3 4 4 4 5 6 7 7 8 8 8 7 7
2 2 3 2 5 6 2 3 3 2 5 4 5 7 6 3 4 4 4 3 1 2 2 1 2 1 1 3 4 4 3 2 1 2 1 1 4 2 6 10 6 2 3 3 2 2 2 1 3 4 3 2 2 3 3 4 3 2 3 6 7 4 3 3 2 4 1 3 4 4 4 5 4 3 4 3 3 4 3 4 5 6 8 9 8 8 8 7
2 1 2 5 2 2 1 2 3 1 4 4 5 6 3 3 5 3 3 1 2 1 2 1 2 3 4 5 5 4 5 3 2 2 2 2 4 3 5 8 5 5 8 4 2 4 3 2 4 5 5 4 4 4 4 2 1 3 5 7 8 7 3 3 5 3 4 3 2 5 5 1 5 3 2 2 3 3 3 4 5 5 7 8 8 8 9 9
1 1 0 2 2 2 2 2 4 2 2 2 3 4 2 4 5 3 0 0 1 1 2 2 4 4 3 4 4 3 5 5 4 3 2 2 3 4 6 6 5 10 11 4 3 4 4 4 5 5 1 3 6 4 0 4 5 4 5 7 9 8 6 5 3 3 5 6 3 8 5 3 5 4 5 4 4 4 3 4 4 4 6 7 7 8 9 9
0 1 0 1 1 0 1 2 3 4 5 4 3 2 3 5 3 2 2 2 3 3 3 3 6 5 2 4 4 3 5 5 5 4 3 3 3 4 6 6 7 8 7 4 3 3 6 3 2 3 2 6 3 2 4 5 5 5 8 9 10 9 8 6 2 3 2 5 6 6 6 4 5 2 5 4 4 4 3 2 3 3 5 6 7 9 9 9
0 1 2 1 0 3 3 3 3 5 6 5 3 1 3 4 4 3 2 1 4 4 4 3 3 4 4 4 6 3 3 3 3 4 3 3 3 2 3 4 7 6 5 4 3 3 5 2 1 4 2 6 7 6 6 7 7 7 9 11 10 8 8 7 5 4 2 2 4 3 7 2 4 1 4 3 4 4 4 4 4 4 5 5 7 7 7 8
1 1 2 3 2 2 3 3 2 3 5 3 2 3 3 3 2 3 1 2 1 2 3 4 3 1 3 4 7 4 3 5 3 3 2 2 3 2 1 1 4 6 6 3 2 3 4 3 2 4 4 6 7 4 5 7 8 8 11 13 13 11 10 9 9 7 5 4 5 3 6 4 5 3 5 5 5 5 5 5 4 4 4 5 6 6 6 7
3 3 1 2 2 2 1 2 1 2 3 2 2 4 4 4 3 0 1 0 3 3 2 5 6 3 3 5 6 2 5 6 4 4 5 2 2 0 1 2 3 3 6 4 3 4 3 3 1 4 4 3 6 4 4 4 6 9 12 14 14 11 8 7 8 8 5 4 5 6 4 3 4 3 5 7 7 8 6 5 5 4 3 4 5 6 6 6
7 4 2 2 1 2 1 1 2 1 2 3 3 4 4 8 8 1 2 3 2 1 3 6 6 4 4 5 4 2 6 6 5 5 5 4 4 2 2 2 2 3 4 3 2 2 2 3 2 3 3 3 6 4 3 4 6 5 6 7 7 6 5 6 8 11 10 4 1 2 1 1 2 3 6 8 9 8 6 4 4 3 3 3 4 5 5 5
Wind_Direction
10 10 9 6 3 2 1 357 354 352 350 346 343 342 339 338 336 335 333 329 327 323 325 330 332 335 336 338 334 326 322 316 315 306 256 258 263 237 205 186 173 168 176 170 159 159 148 170 193 175 156 155 181 192 185 191 159 113 164 192 201 196 207 189 172 175 160 159 177 166 163 186 189 190 280 91 120 129 123 111 113 97 100 114 121 133 138 142
8 9 8 6 4 3 2 359 356 356 354 349 344 340 336 335 332 331 330 327 326 322 325 328 331 337 338 340 333 327 326 319 313 290 260 258 259 215 185 179 176 181 195 194 185 176 142 150 180 151 133 144 220 187 174 174 165 170 160 172 224 206 205 195 156 130 151 160 173 184 169 178 161 146 257 134 143 138 120 121 114 106 109 115 123 134 140 143
4 7 7 5 3 2 1 359 358 357 356 352 346 342 336 333 331 329 328 325 321 319 321 326 332 337 340 338 331 329 324 322 312 276 274 266 239 207 176 174 179 188 201 202 197 187 157 112 141 133 122 219 256 214 211 173 172 185 139 196 242 216 230 228 138 128 173 169 164 190 174 162 138 91 323 145 147 147 139 139 131 128 133 133 134 139 144 147
1 3 3 2 1 359 358 357 358 358 357 353 347 343 336 332 330 327 327 323 317 315 317 328 334 337 343 337 328 328 323 325 301 267 349 344 242 191 177 173 174 180 189 187 180 186 182 80 97 118 117 237 266 233 245 202 175 172 147 206 257 230 259 269 136 141 173 175 161 172 165 159 139 78 77 145 145 154 161 157 148 144 144 144 143 145 150 155
357 358 359 359 358 356 356 355 357 357 356 353 348 342 338 334 330 328 329 325 318 316 320 332 338 342 344 336 328 326 338 34 276 300 315 318 302 184 183 179 172 170 174 172 157 169 177 100 68 66 99 237 250 198 232 206 166 139 159 170 341 301 250 265 166 154 171 173 150 153 159 156 121 101 120 161 165 171 169 160 151 147 147 148 147 149 153 158
353 355 357 356 356 354 353 354 355 356 354 352 349 343 341 336 332 334 335 332 325 320 326 340 343 344 344 342 338 338 19 145 276 295 263 285 308 185 184 184 180 171 176 182 165 154 146 120 90 95 146 233 217 215 233 193 154 145 175 55 40 1 279 252 241 178 171 158 150 157 154 118 99 115 137 176 190 169 150 149 148 147 145 147 149 152 154 159
350 353 354 355 356 353 352 353 353 354 354 352 349 344 343 339 337 339 341 342 335 327 335 351 348 343 353 355 341 14 66 257 276 254 237 255 146 182 179 181 180 177 188 189 170 150 133 135 141 160 195 243 216 219 215 108 107 118 121 48 63 26 42 51 28 132 152 143 145 145 115 119 130 129 129 188 195 141 137 142 142 144 145 148 151 155 155 160
350 352 353 355 355 352 352 352 352 353 353 352 348 344 343 342 344 346 351 353 346 340 347 2 356 349 4 17 354 360 333 263 288 234 233 232 162 172 171 175 181 185 193 198 187 157 144 150 170 184 206 257 245 220 151 95 59 96 115 115 98 44 61 67 65 89 102 103 118 117 99 130 134 100 102 238 163 134 136 141 142 144 148 152 155 157 156 162
351 351 352 355 353 351 350 351 353 353 353 352 346 344 344 345 351 357 2 3 358 351 356 5 3 11 15 23 49 1 287 285 304 252 241 232 184 173 173 177 185 188 192 203 194 168 171 167 182 207 218 273 270 222 196 135 47 129 113 101 105 81 81 71 80 95 87 95 119 111 89 36 143 102 49 238 153 136 139 144 146 148 151 156 157 159 160 166
351 351 352 354 351 349 349 351 352 352 354 352 345 344 346 348 355 3 12 15 11 359 1 8 12 33 25 27 66 34 295 328 333 286 276 252 194 177 183 189 190 191 189 193 193 183 177 149 163 213 223 286 274 243 240 182 123 115 107 94 97 99 93 59 80 107 97 84 117 129 132 183 199 117 92 192 150 139 142 145 150 150 153 158 159 163 167 172
351 352 352 352 350 348 348 351 351 352 353 351 347 345 346 350 355 4 15 20 24 11 6 7 20 36 43 80 89 236 263 8 11 353 312 266 208 191 197 200 198 197 189 180 201 198 166 119 69 85 197 308 319 344 1 122 116 119 119 93 69 71 77 51 50 111 104 64 10 135 145 156 177 146 192 169 148 141 142 146 153 152 154 159 160 165 172 178
349 350 351 350 349 347 348 349 350 350 351 350 348 343 342 345 349 359 9 17 26 14 9 14 47 40 19 92 178 223 240 357 347 333 311 273 238 226 217 211 208 204 198 193 211 207 185 145 27 35 256 346 344 359 57 106 111 127 132 97 67 34 44 21 359 73 104 108 285 169 131 145 163 175 184 163 146 144 143 148 154 154 157 160 164 169 176 180
347 349 349 349 348 347 348 348 348 348 347 349 347 339 334 330 336 353 360 6 9 8 26 55 30 13 31 303 238 245 278 313 310 299 289 263 250 252 229 219 221 218 215 216 224 203 199 212 260 231 248 28 320 213 129 108 96 104 53 91 96 49 3 340 10 23 96 112 232 191 154 184 171 162 167 157 147 147 145 152 155 156 162 165 171 174 178 177
346 347 347 348 348 347 347 347 347 346 344 347 345 333 321 315 316 329 345 351 13 45 57 56 6 32 70 268 274 298 309 301 282 259 253 235 232 248 228 218 224 229 229 234 255 152 190 215 230 252 276 154 193 160 122 87 64 89 41 44 79 120 258 324 8 358 100 77 349 100 142 184 159 157 159 153 151 150 150 156 157 158 167 171 176 177 178 177
345 346 347 348 347 346 348 346 345 343 342 343 341 330 315 305 300 302 329 340 134 98 55 52 34 44 16 281 284 315 310 290 258 242 237 218 208 221 220 211 218 230 236 241 247 260 256 261 240 254 300 159 147 127 110 61 27 75 93 3 349 118 233 336 13 26 68 17 13 62 123 157 145 162 160 154 154 151 154 161 162 164 173 177 180 180 179 177
345 346 346 346 346 347 347 345 344 341 340 339 339 338 322 305 293 290 298 280 225 193 96 61 48 74 9 286 303 325 290 252 261 252 238 221 207 214 212 202 218 232 236 246 251 264 274 291 256 194 127 125 134 122 94 70 16 1 88 169 208 131 174 359 19 30 51 16 25 62 97 346 149 168 161 157 156 152 159 164 166 171 178 180 182 183 176 169
345 346 345 345 346 347 346 345 344 340 338 339 342 343 331 312 288 275 272 187 183 194 147 88 39 60 274 279 316 329 293 277 283 265 232 227 219 219 202 184 221 232 235 250 250 261 252 208 227 194 101 102 140 123 101 115 208 289 49 131 189 139 143 111 328 336 58 70 35 49 88 333 301 173 162 163 158 157 165 167 172 177 180 184 184 180 170 167
345 344 344 345 346 347 347 344 343 340 338 343 346 343 336 327 286 263 144 123 120 162 161 249 58 61 271 282 316 297 297 299 290 264 229 226 221 217 202 180 203 168 24 298 248 218 186 206 218 126 94 94 143 137 145 192 182 184 175 137 154 132 129 153 208 225 100 91 66 44 110 3 333 153 145 167 165 166 169 170 177 178 179 185 183 177 168 173
344 344 344 345 346 347 346 343 345 342 338 346 350 343 344 7 31 125 121 117 105 280 281 238 178 22 275 282 295 293 302 305 286 250 215 193 202 211 208 199 127 104 94 8 296 212 167 129 65 129 159 165 177 176 179 195 180 182 183 132 147 145 131 174 192 217 142 103 100 119 126 77 344 354 38 360 234 185 176 171 177 178 179 184 181 176 172 176
344 343 343 345 347 347 345 344 345 341 341 350 352 352 12 24 15 347 260 181 207 231 250 224 183 252 283 280 289 304 319 317 252 224 215 191 175 183 201 192 79 76 131 158 247 256 132 151 201 185 190 190 192 194 190 197 182 163 130 100 142 140 125 136 140 190 162 106 123 145 119 106 290 276 303 3 333 228 190 176 180 178 176 182 179 174 176 177
343 342 342 344 346 346 345 343 343 342 344 351 356 15 127 315 1 330 313 266 238 221 232 237 201 227 260 264 279 312 357 335 291 251 220 195 151 147 211 100 113 269 259 170 230 319 103 171 224 211 195 193 196 193 186 202 200 165 137 134 144 129 116 96 127 187 181 122 173 143 123 132 181 234 262 338 333 231 201 182 182 180 177 181 173 170 176 167
341 341 341 343 345 346 345 341 340 342 345 350 359 41 203 269 193 299 326 307 279 225 219 241 223 241 259 263 268 278 67 307 295 295 203 165 137 152 173 94 138 230 280 117 58 341 354 221 233 222 191 185 202 182 177 206 205 174 141 141 158 151 122 88 129 177 209 176 167 163 159 161 179 237 263 271 224 234 227 197 185 178 177 180 171 170 169 149
340 340 341 342 344 345 343 340 337 337 345 344 336 313 330 340 316 298 298 289 293 260 217 216 205 238 260 268 257 203 112 213 256 286 200 148 147 171 136 109 157 199 287 164 170 192 250 244 240 221 165 176 214 174 174 205 189 154 146 151 173 179 161 128 156 160 231 301 155 160 173 152 130 276 274 256 228 238 277 230 192 179 181 181 175 172 162 152
339 339 339 340 342 344 342 335 328 329 339 330 319 330 349 347 335 320 272 196 295 285 245 208 189 210 233 264 224 152 158 210 195 261 196 147 125 152 151 151 150 169 234 203 185 191 240 255 258 204 156 185 209 172 160 176 193 185 182 178 171 180 176 106 141 141 75 347 131 127 99 324 186 213 245 249 242 250 293 237 190 182 189 184 177 172 160 156
339 338 336 338 339 342 339 331 317 341 333 322 318 348 350 346 348 353 132 45 311 290 280 220 197 232 233 245 187 167 189 239 215 217 180 156 147 141 188 174 136 199 226 205 180 212 253 254 226 268 223 196 198 203 182 168 188 232 213 210 186 174 151 110 134 141 119 252 208 154 149 263 206 202 222 218 192 234 291 211 187 177 183 186 180 178 165 159
338 335 334 335 335 338 341 340 359 338 331 319 330 346 345 348 359 64 133 39 332 289 306 174 124 243 240 206 169 133 60 291 247 207 175 173 168 138 152 235 97 205 208 183 175 222 257 230 167 214 234 210 200 224 218 170 154 236 222 210 182 160 140 134 148 152 151 200 219 186 171 195 205 211 217 201 186 213 254 248 200 176 174 185 186 181 167 163
336 332 331 330 331 338 341 299 322 328 324 310 332 340 343 351 7 148 97 33 342 294 278 237 58 188 241 210 139 104 100 284 280 223 189 179 177 102 141 226 357 216 203 149 211 238 229 217 193 208 218 214 208 223 216 168 152 240 223 180 164 157 150 150 153 151 134 108 127 203 158 116 205 222 206 189 192 210 226 239 219 185 177 183 190 184 167 169
332 330 328 324 327 331 321 303 313 314 275 303 327 339 343 348 49 134 73 47 294 307 221 254 311 216 271 190 120 119 211 253 26 283 215 161 165 70 158 212 181 210 223 146 222 258 195 213 217 204 206 211 218 221 188 167 183 247 123 123 134 135 131 131 124 86 79 86 141 215 214 141 236 246 181 174 198 212 213 221 218 196 187 183 189 187 171 171
329 328 323 319 320 321 314 302 296 289 294 308 328 337 337 341 94 94 61 101 269 291 229 4 300 252 333 68 92 315 280 332 178 266 101 140 160 85 167 208 177 212 248 168 217 266 231 219 210 190 192 208 230 229 177 169 202 110 94 89 86 91 90 87 71 38 39 45 206 205 198 196 263 249 163 170 206 214 207 210 211 198 193 186 186 185 173 170
328 326 320 314 315 319 317 300 280 279 303 316 331 333 334 353 74 62 41 59 289 271 252 8 265 219 74 81 316 300 265 264 257 326 40 100 1 31 175 211 116 181 284 240 234 260 254 240 223 196 199 203 221 232 182 159 145 102 96 92 79 70 64 62 55 49 39 291 266 206 197 193 311 233 192 193 205 204 196 199 201 195 193 191 186 183 174 166
328 326 316 308 307 304 303 295 270 289 318 328 333 335 349 34 68 82 94 329 2 288 299 304 269 113 127 143 249 254 240 286 328 45 26 19 13 15 355 342 37 54 351 338 284 281 280 254 232 220 211 191 187 227 148 150 140 110 101 110 90 52 32 42 23 46 116 243 285 227 192 177 274 244 214 216 206 192 193 196 195 191 188 190 189 185 176 164
330 325 312 302 296 277 256 258 279 302 315 326 335 351 65 51 31 102 265 339 3 288 276 218 235 211 181 186 221 213 216 300 294 135 155 145 72 194 187 201 190 31 341 297 292 315 296 239 230 238 223 183 152 84 61 121 134 115 120 118 94 53 39 69 272 265 208 232 264 165 173 188 252 249 227 225 211 196 200 198 192 189 184 184 188 187 179 163
331 324 312 300 290 277 267 275 286 294 310 328 346 42 82 72 7 237 261 314 264 254 268 218 195 141 123 132 267 235 192 276 276 191 159 150 139 264 250 211 159 117 243 245 312 335 316 297 286 221 248 189 141 121 117 132 213 147 142 131 118 112 102 148 213 257 252 257 248 149 167 202 268 262 226 216 208 200 202 197 188 186 184 182 182 183 181 167
332 325 315 301 292 289 285 283 281 288 313 340 26 65 61 68 251 264 276 266 244 260 284 255 135 92 114 181 235 199 122 267 257 138 123 91 68 283 276 248 145 124 154 250 296 217 209 308 260 183 229 185 149 156 159 152 167 172 133 108 146 155 156 172 193 196 184 242 102 136 167 198 220 245 233 220 210 191 191 193 183 183 186 179 173 175 182 174
335 325 313 303 296 293 288 281 277 284 318 15 62 69 80 190 259 280 254 254 260 302 303 329 90 92 264 277 277 193 143 239 240 125 104 148 179 210 233 223 176 154 130 163 254 199 164 260 248 233 222 161 160 170 149 133 140 175 63 72 195 184 152 137 159 160 138 120 128 156 207 232 204 244 274 257 213 186 183 186 177 180 184 175 175 182 183 183
337 326 312 296 288 284 284 285 246 191 140 70 58 56 173 208 231 203 230 262 304 319 321 352 82 139 283 314 305 292 81 134 178 75 340 198 204 211 215 212 185 177 162 164 229 241 316 274 275 298 285 165 161 160 150 146 143 113 121 211 228 182 125 110 72 39 80 105 178 194 249 296 285 272 288 201 185 185 182 181 179 182 180 176 182 185 183 187
337 332 310 285 284 278 271 269 154 140 114 81 74 255 220 218 207 191 243 288 293 289 327 5 93 179 203 295 299 315 354 8 69 54 335 314 281 233 250 277 187 180 191 189 228 232 217 284 294 346 333 269 156 135 146 185 141 128 190 213 200 55 82 99 94 23 48 129 239 202 231 281 269 253 295 184 187 189 186 185 184 182 180 182 187 184 182 184
332 329 305 287 283 269 244 177 133 120 81 71 48 280 226 224 233 216 260 295 299 301 108 282 256 184 159 154 275 283 349 34 60 62 333 351 300 258 315 309 242 210 214 189 204 250 164 288 291 288 12 297 39 102 128 271 153 143 189 181 127 104 103 105 124 136 141 215 262 253 254 255 220 215 203 194 198 192 188 187 184 185 184 187 187 181 178 174
332 343 319 319 308 247 185 143 125 89 56 62 337 278 241 256 261 250 268 292 298 315 247 232 215 95 127 154 214 258 45 108 133 131 17 63 290 282 350 305 284 308 286 171 169 236 141 120 285 296 340 310 29 84 157 244 195 131 148 120 119 139 154 166 168 153 148 164 230 286 305 252 232 216 182 189 199 188 184 189 189 191 189 188 186 179 172 168
1 58 300 331 329 184 153 125 93 58 60 144 213 242 263 275 275 271 273 275 235 213 257 256 65 54 79 182 187 222 96 152 159 144 182 172 252 287 293 45 311 313 322 121 151 225 93 108 248 300 341 55 145 142 178 191 162 132 118 299 256 80 128 162 169 138 127 133 177 207 295 263 249 205 174 183 192 186 183 187 192 194 190 188 183 173 166 164
28 62 296 334 152 163 137 88 38 66 112 253 231 236 275 281 281 292 295 301 230 232 225 208 82 80 160 184 195 213 147 143 148 132 202 207 166 275 279 241 274 302 353 34 52 188 100 117 183 300 348 15 243 250 201 187 163 143 164 196 185 156 127 127 187 279 117 120 166 162 217 267 268 225 180 173 183 193 187 184 187 187 183 181 169 161 161 156
48 104 283 7 144 153 112 60 271 115 179 247 240 243 289 295 274 297 309 330 13 290 315 80 80 88 162 191 202 181 133 111 139 137 198 223 173 187 253 256 269 300 73 11 288 237 134 101 89 291 286 257 266 279 243 189 142 123 179 203 147 138 125 129 179 237 110 94 133 124 193 267 274 278 209 158 175 195 186 180 178 174 169 155 139 143 146 137
93 235 277 121 158 151 63 23 290 347 235 254 268 251 280 285 271 301 307 313 15 16 9 33 27 19 355 256 232 105 91 75 66 136 188 263 239 215 237 273 298 347 89 59 301 316 71 66 31 309 297 303 300 321 357 46 85 81 335 359 121 181 139 140 175 170 134 156 140 89 279 265 283 319 20 124 138 158 171 176 166 157 148 138 136 136 134 126
330 261 293 136 172 167 66 208 261 312 271 289 312 287 282 245 244 272 283 298 344 69 33 7 354 356 303 319 50 66 58 72 42 32 142 134 269 227 274 353 340 332 62 118 212 11 31 46 47 24 358 351 342 351 2 9 41 70 308 330 314 260 101 103 99 79 110 197 144 124 234 254 276 338 39 87 100 118 161 176 162 154 148 145 143 136 137 134
336 234 283 323 174 167 154 187 187 291 301 325 314 297 302 279 253 230 228 278 281 151 117 315 300 349 9 25 49 42 31 86 69 348 63 51 297 304 22 355 332 309 304 264 179 80 82 119 93 92 80 48 18 346 325 310 329 357 333 338 342 355 92 130 105 84 175 217 132 148 222 260 290 337 44 81 111 105 123 152 157 156 152 152 150 146 148 144
20 138 286 328 10 114 233 199 111 336 306 330 308 293 298 297 293 251 192 250 303 103 92 331 319 28 33 41 47 16 4 31 68 32 40 10 312 315 355 341 332 349 333 316 81 75 91 73 69 108 137 161 185 231 259 258 18 13 345 347 358 355 358 109 110 133 190 174 176 220 206 231 288 269 108 117 144 127 123 145 155 158 153 154 155 156 154 150
47 74 72 340 345 9 337 356 46 14 280 252 273 279 280 287 298 313 342 291 300 59 68 17 28 45 31 48 61 14 351 359 23 35 8 324 294 300 327 335 344 349 341 345 60 74 92 49 39 83 116 235 204 204 321 79 84 49 11 8 7 359 13 69 108 211 171 135 224 250 188 159 266 230 157 163 160 143 152 156 156 157 150 149 152 156 157 155
147 267 142 116 261 225 352 327 345 331 296 257 233 250 273 276 284 315 316 312 341 46 71 14 16 35 63 110 105 34 0 1 4 360 327 330 349 344 347 335 322 337 349 356 18 84 105 68 35 89 344 303 301 11 34 76 80 52 37 27 13 9 27 47 13 274 157 154 232 234 165 175 268 209 148 174 162 137 132 128 120 125 125 130 144 156 165 165
38 331 311 10 150 201 225 278 304 313 295 270 252 237 241 264 287 287 263 355 353 14 86 89 7 13 31 94 108 71 30 43 2 329 317 1 15 22 32 345 310 324 3 9 3 83 104 96 130 120 53 333 349 13 39 61 53 34 29 24 18 20 32 42 31 5 10 265 259 166 126 118 307 100 121 136 131 113 101 90 85 99 112 123 138 151 165 171
15 324 320 357 352 258 251 284 320 313 299 282 269 272 244 237 287 302 313 94 69 327 49 103 141 81 27 59 90 105 164 158 157 286 293 43 28 355 55 176 271 318 356 6 344 36 92 134 164 99 60 340 333 2 53 63 54 34 20 13 12 15 22 30 25 11 6 340 332 55 95 46 351 40 78 75 87 89 90 92 85 90 104 118 129 138 151 163
320 279 328 30 324 308 274 283 2 335 311 337 339 317 312 296 288 159 351 344 169 183 148 149 154 128 48 49 68 104 206 180 180 246 239 173 117 72 295 204 204 327 349 351 344 10 74 118 100 74 75 311 308 334 355 28 46 31 15 8 4 6 18 32 28 13 354 327 344 19 55 7 337 34 65 62 70 73 78 87 85 82 91 110 131 140 144 150
349 312 5 72 275 328 16 299 1 38 261 269 310 325 313 297 296 139 114 322 323 128 150 159 146 95 50 45 39 271 230 206 214 241 224 174 123 136 233 220 118 52 351 336 1 6 77 107 116 98 101 273 296 326 339 27 42 9 346 358 354 360 30 41 30 14 358 344 19 35 38 287 320 57 72 64 64 66 63 63 69 80 83 87 120 134 129 122
Height
806 805 804 802 801 800 799 798 797 796 795 794 793 792 791 791 790 789 788 787 786 784 783 782 781 780 779 778 777 776 775 773 771 772 770 762 759 761 762 763 764 766 767 768 769 771 772 774 774 774 776 778 780 780 779 779 780 788 800 810 813 811 806 799 801 801 799 800 801 800 797 801 804 799 793 792 796 798 800 800 799 798 798 800 802 804 807 810
806 805 804 802 801 800 799 797 796 795 794 793 792 792 791 790 789 788 787 786 785 784 783 782 781 780 779 778 777 776 774 772 771 769 763 758 758 760 761 762 764 765 766 767 768 769 772 775 774 774 778 781 781 779 780 778 780 791 800 807 808 802 795 788 791 795 796 799 800 798 796 798 801 798 795 800 805 802 805 806 803 805 804 804 804 807 809 811
806 805 804 802 801 799 799 797 796 795 794 793 792 791 790 789 788 787 786 785 784 783 782 781 781 780 779 778 777 776 775 773 770 764 757 756 758 759 761 762 763 764 765 767 768 769 772 773 774 775 780 784 782 780 782 780 782 789 795 804 800 790 789 785 789 794 791 792 797 799 796 797 798 796 796 802 806 806 808 808 807 810 809 807 807 808 811 812
806 805 803 802 801 800 798 797 796 795 793 793 791 790 789 788 787 786 785 784 783 782 781 781 780 779 779 778 777 777 775 774 768 759 757 757 757 759 761 762 763 764 766 767 768 770 771 772 773 775 781 787 783 782 785 781 782 787 791 799 793 786 790 787 788 791 786 786 793 797 797 798 797 795 797 801 808 810 807 803 803 806 807 807 807 808 811 813
806 805 803 802 801 799 798 797 795 794 793 792 791 790 788 787 786 785 784 783 782 781 781 781 780 779 779 778 778 776 776 778 767 756 758 757 757 758 760 762 763 765 766 767 768 770 771 772 774 777 783 788 785 785 785 776 776 787 789 791 790 789 792 787 785 788 785 786 792 796 798 797 795 796 798 800 807 808 801 798 798 799 801 804 806 808 811 813
806 805 804 802 800 799 798 796 795 794 793 791 790 789 788 786 785 784 783 782 782 781 781 780 780 779 779 778 778 776 777 778 764 756 758 757 757 758 759 762 763 765 766 768 768 769 772 773 777 782 785 787 787 785 780 772 773 786 791 788 789 789 789 787 783 784 783 786 793 795 794 793 796 799 798 799 801 798 793 794 796 797 799 802 805 808 810 813
806 805 804 802 800 799 797 796 795 793 792 791 790 788 787 786 784 784 782 782 781 781 780 780 780 779 779 778 778 777 777 772 759 757 758 757 758 758 760 762 763 765 766 767 768 770 772 775 780 783 786 786 783 781 776 773 775 785 792 790 789 788 787 786 783 783 782 786 789 790 792 794 799 800 798 799 796 792 792 793 796 799 801 803 806 808 810 813
805 805 803 802 800 798 797 796 794 793 792 790 789 787 786 785 784 783 782 782 781 780 780 780 780 779 779 778 777 777 776 766 757 758 758 757 759 758 760 762 763 765 765 767 767 769 771 776 780 780 787 785 778 778 775 776 781 785 791 790 788 788 788 787 786 786 786 787 788 789 795 798 798 799 800 799 794 790 793 795 797 800 803 805 807 809 810 813
805 804 803 801 800 798 797 795 794 792 791 790 788 787 786 784 783 782 782 781 781 781 780 780 780 779 779 779 779 778 770 760 757 758 758 758 759 759 761 761 762 763 764 767 766 769 771 775 778 777 784 782 775 777 773 779 787 785 787 788 789 790 789 789 789 789 789 789 789 793 798 799 797 797 802 799 793 791 793 797 799 801 805 807 808 809 811 813
805 803 802 801 799 798 796 795 793 792 791 790 788 787 785 784 783 782 782 781 781 780 780 780 779 779 780 778 780 778 764 757 759 758 758 759 759 760 761 760 762 762 763 765 765 767 768 772 773 771 776 777 775 775 773 778 783 781 785 788 789 790 789 789 791 791 792 792 791 795 800 799 796 798 805 799 790 791 795 800 801 802 807 808 809 810 810 812
804 803 802 800 799 797 795 794 793 791 790 789 788 786 785 784 783 782 782 781 780 780 780 780 779 780 780 778 781 775 761 758 759 758 760 759 759 760 760 760 761 761 763 764 764 764 766 769 767 769 776 776 776 777 775 774 777 780 784 789 791 789 789 789 791 791 796 800 795 796 800 800 799 803 807 798 790 792 797 803 804 804 807 807 809 810 810 812
803 802 801 799 798 796 795 794 792 791 790 788 787 786 785 784 783 782 781 781 780 780 779 779 780 779 779 779 778 769 759 759 759 759 760 759 760 760 759 761 760 761 762 761 762 763 767 767 766 773 776 774 780 783 780 774 775 781 782 791 796 791 792 791 790 790 796 802 796 797 808 809 805 806 804 795 791 794 798 804 806 806 808 808 809 810 810 811
803 802 800 799 797 795 794 792 791 790 789 788 787 785 784 783 782 782 781 780 780 780 779 779 779 779 780 777 767 760 759 760 759 758 759 759 760 760 760 761 760 761 762 761 763 764 767 767 767 772 771 775 784 780 776 774 777 785 785 792 799 799 800 792 789 790 793 801 795 798 819 818 806 803 799 794 793 796 802 805 807 808 808 809 809 810 811 811
803 801 800 798 796 795 793 791 790 789 788 787 786 785 784 782 782 781 780 780 779 780 779 779 780 779 780 772 759 758 760 759 759 757 757 759 760 760 760 760 761 762 762 763 765 766 767 767 768 770 770 774 778 773 777 782 784 790 792 795 801 807 806 793 790 792 794 801 791 793 818 819 807 803 797 794 795 798 805 807 807 808 808 809 809 810 811 810
802 801 799 797 796 794 792 791 789 788 787 786 785 784 783 782 782 780 780 780 779 780 779 780 779 779 780 771 757 757 759 758 757 756 756 758 758 759 759 760 761 761 762 764 765 767 767 768 770 775 774 770 773 781 789 792 791 794 802 810 808 809 808 797 794 797 802 805 791 794 818 819 808 804 797 794 796 799 805 808 807 808 808 809 809 809 811 811
802 800 798 797 795 793 792 790 788 787 785 784 784 783 782 781 781 780 780 779 779 780 779 780 779 780 781 770 757 756 757 757 756 755 756 756 757 758 758 759 760 760 762 764 765 766 767 769 771 773 775 776 781 789 796 803 803 800 806 816 813 811 813 809 804 802 805 807 800 803 820 822 811 804 799 796 798 801 806 808 807 809 808 808 809 809 810 811
801 800 798 796 794 793 791 789 787 785 784 784 783 782 781 780 780 780 779 779 780 779 779 780 779 781 776 762 758 759 756 755 755 754 755 755 756 757 758 759 760 760 761 763 765 766 767 771 773 773 777 783 786 790 804 818 816 809 809 813 813 811 815 818 812 802 802 808 809 808 817 825 817 805 801 799 799 803 807 808 808 808 808 807 808 809 810 811
800 799 797 796 794 792 790 788 786 784 784 783 781 781 780 779 779 779 779 779 779 779 780 780 779 783 775 762 761 761 756 754 754 753 754 754 755 757 758 759 760 761 764 766 766 768 771 772 775 780 783 788 789 792 808 817 810 810 811 810 813 813 815 818 810 801 801 808 812 811 815 823 819 811 808 805 802 804 806 806 807 806 807 807 807 809 810 810
800 798 796 795 793 791 789 787 786 784 783 782 781 780 778 779 779 779 779 780 780 779 779 778 777 781 776 764 759 757 754 753 753 752 753 754 755 757 758 758 760 764 770 775 773 770 772 776 781 787 790 792 792 791 797 799 796 801 803 805 812 815 816 813 807 802 801 808 814 815 817 821 820 817 814 810 807 807 806 805 806 807 807 807 807 808 809 810
799 798 796 794 792 790 788 786 785 784 782 781 781 779 780 782 783 782 780 779 777 774 772 772 773 774 771 763 757 755 754 753 753 752 752 753 754 757 759 760 763 768 774 779 778 771 772 783 789 789 789 788 787 786 786 787 789 795 801 806 809 814 816 812 809 805 799 808 817 815 817 822 821 819 814 810 811 811 808 807 807 807 807 807 807 807 808 808
798 797 795 793 791 789 788 786 785 783 782 781 780 780 784 786 788 787 781 775 769 767 768 767 767 768 764 760 757 756 758 758 754 751 753 753 753 761 765 764 772 777 776 777 777 771 774 788 789 782 781 780 780 782 783 785 788 792 800 808 811 814 816 812 811 807 799 807 817 816 819 823 821 820 814 810 812 812 808 807 807 806 806 805 805 807 807 807
798 796 794 792 790 789 787 785 784 783 782 781 780 782 783 783 785 784 782 780 769 762 765 764 765 766 759 757 756 756 763 766 760 754 752 753 756 765 768 769 777 780 776 776 780 782 785 789 783 776 777 778 779 781 782 785 787 792 800 808 813 813 813 814 812 809 806 810 817 818 818 821 820 817 815 812 811 810 806 803 803 803 805 805 804 805 807 808
797 795 793 791 789 788 786 784 783 782 782 781 780 781 782 781 781 780 782 785 776 763 762 764 765 764 760 758 754 756 764 767 765 758 750 754 759 763 768 772 777 779 778 780 784 791 794 785 775 774 777 779 782 783 783 785 788 794 801 807 812 810 809 815 815 814 812 810 815 818 817 820 820 818 816 812 810 807 804 802 800 800 802 802 801 801 804 808
796 794 792 790 788 787 785 783 782 782 782 780 780 780 781 780 780 779 779 784 781 767 759 759 759 760 759 754 751 756 763 762 761 758 750 754 761 763 767 772 776 780 780 779 782 789 790 778 770 774 778 779 783 784 784 788 792 795 797 799 805 806 803 806 811 813 814 813 812 817 827 827 821 821 818 810 809 806 803 803 801 800 799 798 798 799 801 804
795 794 791 789 788 786 784 783 781 782 781 780 780 779 779 779 777 777 780 787 787 772 760 757 757 756 752 751 752 754 759 758 755 753 749 751 759 764 767 768 774 782 781 779 783 787 783 773 769 775 778 780 783 785 785 787 794 797 793 789 793 800 800 802 809 813 822 827 814 813 836 838 821 821 820 812 811 809 805 805 803 801 800 800 800 801 801 802
795 793 791 789 787 784 783 782 781 782 781 780 779 778 779 778 776 776 781 794 793 775 765 763 762 758 751 752 752 752 764 764 750 747 748 749 752 758 768 771 771 778 778 776 781 782 777 769 769 775 778 780 784 788 783 781 795 801 787 779 785 793 799 805 809 814 825 828 812 807 829 838 826 820 816 812 813 810 806 806 804 801 800 801 800 800 802 802
795 792 790 789 786 784 783 782 783 783 781 780 778 778 778 776 776 774 784 804 799 775 768 767 762 758 753 753 750 758 775 767 750 748 746 749 751 752 768 775 773 775 770 775 786 780 771 771 772 774 777 781 785 788 781 777 792 793 774 772 784 791 800 804 806 813 817 818 816 812 818 831 832 819 809 810 815 813 809 807 805 802 800 800 799 799 801 801
793 791 789 788 786 785 783 783 784 781 780 780 777 778 776 775 775 775 794 816 799 771 766 764 757 753 752 752 751 759 766 759 760 758 744 747 752 755 769 773 773 775 767 776 791 780 768 772 774 773 778 782 780 778 774 773 783 781 769 774 782 788 798 801 807 814 813 818 830 824 818 830 833 815 805 809 816 816 812 807 805 802 799 799 798 798 799 799
792 790 788 786 785 784 783 783 782 780 779 778 777 778 775 774 775 781 805 815 790 767 764 761 757 755 754 756 757 759 757 756 763 758 745 750 752 754 767 767 767 773 768 773 784 776 768 767 766 769 776 777 770 766 766 770 778 774 771 779 785 792 799 805 815 820 820 828 836 827 821 831 831 817 812 815 815 812 808 804 802 800 798 797 797 797 797 798
790 788 787 785 784 783 782 782 779 779 779 777 778 776 773 775 782 799 819 809 784 771 764 761 762 760 760 765 766 763 760 759 758 753 752 755 754 754 760 759 762 771 772 772 775 772 765 759 759 764 766 764 760 760 761 766 772 772 777 786 794 802 806 813 821 825 833 839 832 821 817 827 832 819 811 808 801 798 800 802 800 797 797 796 796 795 795 797
788 786 785 783 782 782 782 780 778 778 778 777 777 774 775 783 794 813 817 794 780 776 766 765 766 762 764 770 770 766 764 762 757 758 761 761 762 763 764 766 769 775 779 777 774 770 765 763 762 756 752 753 758 762 762 762 766 771 781 790 803 816 819 825 830 832 843 842 827 818 814 825 836 817 801 795 787 787 792 795 796 796 796 795 794 794 793 795
786 784 783 781 781 781 781 779 777 778 778 777 777 775 782 797 806 813 803 783 784 782 769 769 768 764 767 769 769 767 766 765 760 762 766 767 771 769 770 775 775 784 793 788 780 773 765 762 758 751 746 747 758 769 772 771 771 776 786 794 815 837 839 842 846 842 842 834 821 818 818 828 828 804 791 790 785 784 784 784 788 790 792 793 793 792 791 792
784 782 780 779 779 778 778 778 777 778 778 777 778 778 789 807 810 804 795 788 787 777 766 766 764 765 770 771 771 767 767 768 764 763 765 768 773 771 770 770 769 781 792 789 786 781 771 761 755 754 751 743 752 772 783 785 782 781 787 795 815 838 846 853 855 844 836 829 817 815 823 830 819 794 783 783 780 779 778 778 781 783 786 789 790 791 790 791
782 780 779 777 777 776 776 777 776 777 777 776 780 785 796 810 806 795 792 788 779 770 766 766 765 768 771 772 771 766 768 771 765 766 768 770 776 776 771 769 769 773 779 784 786 785 787 778 760 755 753 744 748 761 768 776 782 779 778 787 801 811 820 834 841 833 830 830 822 820 826 825 812 793 780 775 774 774 775 775 777 780 782 784 788 790 790 791
780 778 777 775 775 775 775 776 776 777 778 777 784 793 803 809 803 794 790 781 774 771 768 765 766 773 775 772 769 763 766 771 766 767 772 773 777 776 771 770 769 768 776 787 785 780 788 781 755 745 744 741 748 750 749 766 781 779 779 791 795 786 787 805 818 816 821 832 829 825 820 806 794 785 776 775 775 773 774 775 776 780 781 783 788 790 791 791
779 776 776 774 774 774 774 775 775 776 777 781 791 798 799 799 794 790 782 774 773 774 773 771 769 777 781 776 773 767 763 766 767 770 772 772 773 772 768 765 763 765 770 780 781 777 784 775 750 744 743 739 744 746 745 757 772 780 789 792 780 767 772 796 815 812 815 828 827 821 815 800 791 786 777 776 777 775 776 776 777 779 779 782 785 787 790 790
777 776 775 773 772 773 774 774 775 776 778 785 795 797 792 788 783 780 774 769 771 770 774 779 773 775 782 780 777 772 767 768 770 773 775 775 773 769 766 760 757 759 759 765 772 771 777 774 753 747 751 742 737 742 745 744 752 775 789 778 767 769 772 787 814 822 823 828 823 819 817 807 802 796 784 781 781 779 778 777 778 779 779 781 781 782 786 787
777 775 774 771 771 772 773 774 774 776 780 788 797 794 788 784 777 773 770 767 768 769 774 780 773 771 778 781 780 773 771 776 776 776 778 779 775 766 764 762 755 753 751 757 767 765 770 778 762 747 753 749 738 747 759 751 744 756 765 757 764 784 788 790 808 821 825 828 823 819 817 808 800 794 786 784 781 779 779 777 778 779 778 779 778 779 782 784
777 777 776 771 770 771 773 775 774 778 784 792 798 793 785 781 773 767 766 766 768 770 773 774 771 771 774 776 777 772 772 778 778 779 780 781 778 766 760 761 757 752 749 752 763 762 764 779 774 750 746 751 747 754 769 765 750 749 754 756 760 773 782 787 794 798 806 819 819 816 815 802 786 778 777 778 776 775 777 777 776 776 775 775 775 776 780 782
777 780 779 771 771 772 772 774 777 783 788 792 796 791 784 779 772 763 762 764 766 767 769 770 769 772 772 771 773 770 772 775 775 778 780 778 778 769 758 758 758 754 750 750 757 759 760 774 780 759 746 755 759 758 763 763 757 758 763 766 765 766 771 778 784 784 790 806 815 817 812 790 770 767 768 769 771 770 771 774 774 773 773 773 774 775 777 779
779 783 780 770 771 773 773 778 784 787 790 791 792 788 782 777 771 764 759 759 761 760 761 765 767 770 771 772 772 769 771 774 773 776 778 775 777 773 761 756 757 755 755 755 757 759 762 770 777 769 760 763 761 752 751 751 751 757 763 763 763 767 772 783 794 789 782 792 802 809 805 782 766 767 764 764 768 766 766 769 771 772 772 773 774 775 777 778
782 785 779 772 773 773 776 785 789 789 790 789 786 782 777 774 771 767 760 758 760 759 757 761 765 767 768 769 769 768 770 773 774 775 775 773 773 771 761 753 753 754 757 761 759 754 757 766 773 772 767 763 757 749 749 749 746 751 757 757 759 763 767 781 794 789 785 791 793 799 800 781 769 768 764 764 767 764 765 767 769 772 772 773 776 776 777 778
785 784 776 773 774 773 780 791 791 789 788 783 779 777 774 774 772 768 764 762 762 761 761 763 765 765 766 765 765 767 769 772 774 773 772 772 767 762 758 752 751 754 755 760 760 752 757 771 777 775 767 759 753 748 746 745 749 758 760 756 761 763 759 767 775 774 783 791 789 798 801 781 769 769 766 766 766 764 767 767 769 772 773 775 777 777 778 779
789 786 778 775 775 775 785 794 792 790 787 781 780 778 773 771 770 768 767 765 762 763 765 766 765 765 764 763 764 767 770 774 776 772 771 773 766 757 755 752 753 755 754 757 758 755 765 780 783 784 785 779 773 769 762 756 758 767 767 762 762 761 758 763 767 771 782 788 786 796 796 778 770 771 768 767 768 767 769 768 768 772 774 776 777 778 779 779
790 787 781 776 774 776 784 788 788 790 788 785 785 781 776 772 766 764 766 764 760 761 765 765 763 763 763 763 766 768 769 772 775 772 771 772 765 755 753 754 754 755 753 752 751 752 767 781 783 791 806 810 806 799 787 777 771 769 769 769 766 763 760 762 769 778 785 788 787 786 781 774 774 775 772 771 771 770 771 771 770 771 773 775 777 778 779 779
789 788 786 781 777 778 782 781 783 787 788 789 788 782 779 777 768 760 762 763 760 758 762 764 761 763 765 766 771 773 771 770 772 773 773 772 768 760 755 755 755 753 751 750 750 754 769 781 782 788 801 804 800 792 781 777 780 780 779 777 772 770 764 761 769 778 779 785 787 778 770 772 773 775 777 776 773 773 773 773 772 773 774 775 777 778 778 780
790 790 791 789 786 784 784 782 784 787 787 790 790 781 778 779 773 765 762 762 762 759 762 765 763 767 771 771 775 779 777 773 772 773 775 774 770 764 758 756 756 754 751 750 752 758 772 787 789 788 791 789 783 780 775 775 784 787 787 784 777 775 770 765 770 772 771 781 785 773 768 771 769 772 779 777 774 774 774 774 774 773 774 776 777 779 779 781
792 791 788 789 791 791 789 786 786 787 786 787 786 781 779 778 776 772 767 762 761 760 765 771 770 771 773 771 776 782 781 779 778 777 777 775 772 769 765 762 759 755 754 754 754 757 773 791 793 789 791 788 780 777 775 776 782 784 785 786 781 779 778 776 778 776 772 774 771 764 769 772 770 774 777 774 773 774 774 774 774 774 774 776 778 780 781 782
792 792 788 787 790 791 790 787 786 787 786 785 783 779 779 778 775 772 768 765 766 764 766 775 776 774 773 770 774 782 784 785 787 782 777 776 776 775 775 774 767 758 757 758 757 759 773 789 790 786 790 786 780 780 778 777 781 782 783 786 783 782 783 781 783 782 776 773 771 769 773 776 775 777 775 772 773 773 773 775 775 776 777 778 779 781 783 784
794 795 792 791 790 789 788 786 785 788 786 783 783 779 776 776 773 770 767 768 773 770 768 773 775 773 774 771 772 779 781 781 785 783 777 777 778 777 778 779 773 764 761 762 762 761 770 786 787 782 788 789 782 781 780 779 783 785 784 785 783 783 785 785 788 787 783 784 783 777 777 780 781 778 775 775 775 774 777 779 778 780 780 780 782 783 784 785
796 795 795 795 792 788 788 787 785 789 788 784 785 782 778 776 771 770 769 766 768 770 768 770 772 771 773 773 773 777 775 773 776 776 772 772 774 774 774 774 772 770 767 766 766 763 768 782 785 784 796 797 785 784 784 778 779 785 788 789 789 790 792 792 793 794 793 791 787 782 785 789 785 779 778 779 778 779 783 782 782 783 782 782 784 784 785 785
796 795 794 796 794 789 788 787 786 790 789 785 784 782 780 777 770 769 773 768 764 764 763 765 767 769 774 776 775 772 769 768 768 768 766 766 767 768 770 769 768 770 771 769 770 769 770 778 783 788 800 800 788 788 788 780 786 798 796 793 794 795 795 794 794 795 795 792 790 790 793 791 783 780 782 783 783 785 786 785 785 785 784 785 785 785 786 786